This is the latest recevied weather packets stored in our database for station/object KI4HRG. If no packets are shown the sender has not sent any weather packets the latest 10 day(s).
| Time | Temp. | Humidity | Pressure | Rain* | Wind** | Luminosity | Snow |
|---|---|---|---|---|---|---|---|
| 1787957409 | 31.67° C | 50% | 1015.2 hPa | 0 mm | - | 49 W/m² | - |
| 1787957108 | 31.67° C | 52% | 1015 hPa | 0 mm | - | 51 W/m² | - |
| 1787956803 | 32.22° C | 51% | 1015.1 hPa | 0 mm | - | 49 W/m² | - |
| 1787956498 | 32.22° C | 51% | 1015.1 hPa | 0 mm | - | 58 W/m² | - |
| 1787956193 | 32.22° C | 51% | 1015.2 hPa | 0 mm | - | 66 W/m² | - |
| 1787955892 | 32.22° C | 48% | 1015.1 hPa | 0 mm | - | 58 W/m² | - |
| 1787955588 | 32.22° C | 51% | 1015.4 hPa | 0 mm | - | 62 W/m² | - |
| 1787955278 | 32.22° C | 49% | 1015.2 hPa | 0 mm | - | 62 W/m² | - |
| 1787954978 | 32.78° C | 50% | 1015.4 hPa | 0 mm | - | 61 W/m² | - |
| 1787954674 | 32.78° C | 50% | 1015.2 hPa | 0 mm | - | 70 W/m² | - |
| 1787954373 | 32.78° C | 50% | 1015.3 hPa | 0 mm | - | 109 W/m² | - |
| 1787954069 | 32.78° C | 50% | 1015.4 hPa | 0 mm | - | 72 W/m² | - |
| 1787953767 | 32.78° C | 50% | 1015.5 hPa | 0 mm | - | 149 W/m² | - |
| 1787953463 | 33.33° C | 48% | 1015.2 hPa | 0 mm | - | 88 W/m² | - |
| 1787953161 | 33.33° C | 48% | 1015.3 hPa | 0 mm | - | 89 W/m² | - |
| 1787952859 | 33.33° C | 47% | 1015.3 hPa | 0 mm | - | 104 W/m² | - |
| 1787952554 | 33.33° C | 48% | 1015.3 hPa | 0 mm | - | 309 W/m² | - |
| 1787952253 | 33.33° C | 48% | 1015.2 hPa | 0 mm | - | 323 W/m² | - |
| 1787951949 | 33.33° C | 49% | 1015.4 hPa | 0 mm | - | 344 W/m² | - |
| 1787951645 | 33.33° C | 49% | 1015.3 hPa | 0 mm | - | 350 W/m² | - |
| 1787951341 | 33.33° C | 49% | 1015.4 hPa | 0 mm | - | 375 W/m² | - |
| 1787951036 | 33.33° C | 49% | 1015.4 hPa | 0 mm | - | 391 W/m² | - |
| 1787950731 | 33.33° C | 49% | 1015.4 hPa | 0 mm | - | 348 W/m² | - |
| 1787950427 | 33.89° C | 48% | 1015.4 hPa | 0 mm | - | 396 W/m² | - |
| 1787950124 | 33.89° C | 47% | 1015.5 hPa | 0 mm | - | 469 W/m² | - |
* Rain latest hour (hover to see other rain measurements)
** Current wind speed in m/s (hover to see current wind gust speed)